GEFSSGP_prec_meanprecacc_264.txt.gz
Total_Precipitation_Accumulation
1.69 2.04 2.91 3.70 3.88 3.23 2.69 2.24 1.88 1.89 1.66 1.23 0.89 0.93 1.28 1.66 2.04 2.55 2.69 2.38 1.80 1.59 1.80 2.42 2.87 2.65 2.27 2.13 2.21 2.30 2.22 2.17 2.12 2.03 2.07 1.74 1.62 1.58 1.45 1.31 1.27 1.25 1.29 1.32 1.38 1.38 1.25 1.07 1.01
1.48 2.44 3.50 4.17 3.61 2.67 2.44 2.18 2.12 1.86 1.34 0.96 0.71 0.77 1.01 0.98 0.83 1.57 2.74 2.68 1.80 1.55 1.60 1.95 2.64 2.50 2.22 2.14 2.23 2.27 2.20 2.16 2.15 2.05 1.87 1.60 1.55 1.53 1.51 1.50 1.43 1.32 1.31 1.39 1.42 1.44 1.34 1.22 1.13
1.64 2.90 3.67 3.82 2.68 2.33 2.42 2.28 2.11 1.53 1.03 0.88 0.77 0.67 0.88 1.17 1.19 1.67 2.52 2.06 1.51 1.46 1.58 2.09 2.48 2.32 2.14 1.97 2.02 2.13 2.12 2.08 2.11 2.02 1.75 1.54 1.40 1.38 1.44 1.50 1.44 1.35 1.33 1.30 1.32 1.29 1.24 1.23 1.15
2.01 3.07 3.26 2.84 2.32 1.99 2.01 2.15 1.81 1.45 1.09 0.75 0.70 0.73 0.77 1.28 1.51 1.55 1.64 1.51 1.32 1.36 1.48 1.83 2.19 2.17 2.04 1.85 1.89 1.80 1.74 1.78 1.89 1.82 1.62 1.45 1.46 1.40 1.43 1.43 1.36 1.33 1.30 1.24 1.19 1.15 1.12 1.10 1.03
2.63 3.24 3.07 2.52 2.15 1.99 1.86 1.74 1.57 1.55 1.38 0.94 0.76 0.90 1.12 1.62 1.75 1.69 1.53 1.42 1.29 1.31 1.28 1.50 1.82 1.89 1.88 1.86 1.80 1.74 1.61 1.66 1.68 1.61 1.52 1.43 1.44 1.43 1.40 1.28 1.16 1.15 1.20 1.18 1.19 1.15 1.06 1.00 0.96
3.01 3.07 3.07 2.69 2.23 2.08 2.00 1.70 1.44 1.47 1.32 1.00 0.87 1.07 1.56 2.16 2.19 2.16 1.72 1.60 1.54 1.30 1.19 1.26 1.52 1.59 1.52 1.55 1.78 1.81 1.55 1.62 1.59 1.47 1.42 1.41 1.34 1.34 1.30 1.12 1.08 1.11 1.19 1.20 1.13 1.10 1.02 1.00 0.99
3.09 3.00 2.85 2.41 2.26 2.30 2.09 1.56 1.46 1.43 1.31 0.99 0.85 1.10 1.68 2.48 2.41 2.10 1.70 1.47 1.54 1.40 1.25 1.16 1.12 1.19 1.34 1.54 1.58 1.50 1.53 1.66 1.60 1.39 1.33 1.35 1.18 1.08 1.05 1.06 1.13 1.13 1.20 1.21 1.13 1.05 1.00 1.04 1.10
2.34 2.64 2.72 2.59 2.44 2.57 1.87 1.35 1.23 1.22 1.17 0.73 0.74 1.12 1.57 2.14 2.05 1.91 1.61 1.40 1.39 1.25 1.12 1.01 0.92 0.97 1.06 1.22 1.36 1.38 1.40 1.49 1.47 1.36 1.36 1.37 1.13 0.97 1.01 1.06 1.24 1.24 1.22 1.28 1.20 1.06 1.01 1.05 1.13
2.07 2.62 2.99 2.91 2.37 2.27 1.57 1.48 1.17 1.01 0.95 0.78 0.75 0.88 1.14 1.27 1.40 1.53 1.44 1.25 1.24 1.07 1.00 0.92 0.82 0.85 0.93 1.00 1.06 1.20 1.25 1.29 1.21 1.10 1.14 1.05 0.84 0.81 0.91 0.97 1.29 1.42 1.48 1.43 1.35 1.25 1.13 1.08 1.05
2.22 2.67 2.74 2.18 1.65 1.61 1.53 1.44 1.15 1.21 1.22 1.03 0.91 0.87 1.14 1.23 1.27 1.44 1.39 1.25 1.14 1.08 0.97 0.87 0.86 0.83 0.83 0.82 1.08 1.25 1.09 1.01 0.92 0.93 0.90 0.89 0.91 0.95 0.83 0.93 1.20 1.20 1.24 1.28 1.26 1.26 1.12 0.90 0.77
1.65 2.03 1.94 1.63 1.19 1.16 1.27 1.11 0.90 1.23 1.43 1.16 1.07 1.03 1.15 1.27 1.27 1.29 1.35 1.25 1.11 1.04 0.93 0.81 0.84 0.77 0.71 0.81 0.97 1.16 1.20 1.17 1.12 0.97 0.97 0.94 0.86 0.81 0.70 0.71 0.82 0.85 0.93 0.93 1.02 1.06 0.89 0.73 0.69
1.39 1.37 1.39 1.40 1.01 1.10 1.21 0.99 1.01 1.15 1.20 0.94 0.88 0.93 1.08 1.18 1.19 1.16 1.20 1.18 1.02 0.95 0.96 0.82 0.79 0.70 0.62 0.58 0.66 0.82 0.88 0.89 0.90 0.92 0.85 0.87 0.92 0.90 0.78 0.78 0.85 0.88 0.86 0.96 1.00 1.03 0.92 0.75 0.63
1.47 1.42 1.25 1.20 1.03 1.05 1.10 0.99 1.02 1.15 0.96 0.82 0.89 0.98 1.16 1.21 1.16 1.04 0.97 0.96 0.96 0.96 0.93 0.88 0.82 0.76 0.76 0.72 0.65 0.62 0.66 0.72 0.78 0.86 0.79 0.73 0.80 0.89 0.88 0.85 0.93 0.91 0.92 0.99 0.96 0.84 0.85 0.79 0.67
1.27 1.31 1.34 1.28 1.17 1.03 1.13 1.02 1.04 1.28 1.03 0.89 0.90 1.01 1.14 1.18 1.11 0.97 0.91 0.86 0.79 0.89 0.96 0.94 0.86 0.83 0.75 0.70 0.69 0.70 0.67 0.69 0.73 0.79 0.74 0.67 0.68 0.73 0.85 0.86 0.96 0.91 0.96 1.04 0.93 0.87 0.89 0.87 0.75
1.05 1.38 1.51 1.32 1.21 1.15 1.17 1.35 1.26 1.22 1.06 1.00 0.94 0.96 1.11 1.19 1.11 1.01 0.93 0.88 0.78 0.78 0.88 0.95 0.92 0.91 0.81 0.74 0.75 0.76 0.75 0.69 0.71 0.76 0.67 0.62 0.68 0.69 0.82 0.91 0.95 0.94 0.96 0.98 1.00 0.99 0.94 0.86 0.79
1.26 1.58 1.87 1.40 1.22 1.12 1.32 1.68 1.38 1.26 1.19 1.08 0.89 0.88 0.96 1.05 1.07 1.07 0.94 0.81 0.77 0.75 0.78 0.86 0.86 0.89 0.88 0.85 0.85 0.82 0.77 0.76 0.79 0.80 0.74 0.69 0.69 0.73 0.95 1.02 0.93 0.98 1.09 1.14 1.18 1.14 1.06 0.98 0.97
1.67 1.75 1.69 1.41 1.14 1.04 1.23 1.41 1.30 1.26 1.25 1.12 0.86 0.75 0.79 0.85 0.91 0.95 0.88 0.80 0.74 0.72 0.71 0.73 0.76 0.94 0.95 0.91 0.96 0.95 0.93 0.99 1.01 1.00 0.95 0.87 0.84 0.92 1.11 1.20 1.10 1.09 1.26 1.25 1.16 1.21 1.26 1.21 1.24
1.41 1.24 1.18 1.23 1.05 1.01 1.14 1.11 1.15 1.15 1.11 1.00 0.86 0.74 0.77 0.78 0.76 0.72 0.67 0.72 0.68 0.66 0.64 0.67 0.72 0.85 0.95 1.07 1.15 1.21 1.22 1.23 1.35 1.40 1.36 1.17 1.12 1.16 1.33 1.45 1.41 1.37 1.51 1.53 1.42 1.55 1.60 1.51 1.56
0.92 0.93 1.00 0.97 0.83 0.94 1.02 0.98 1.05 1.04 1.00 0.84 0.74 0.66 0.67 0.65 0.66 0.62 0.57 0.61 0.61 0.57 0.55 0.62 0.75 0.89 1.03 1.15 1.26 1.50 1.66 1.75 1.75 1.73 1.78 1.70 1.49 1.56 1.69 1.68 1.91 1.98 1.97 2.00 1.95 2.12 2.17 1.89 1.74
0.85 0.90 0.94 0.87 0.72 0.82 0.88 0.92 0.96 0.91 0.83 0.67 0.61 0.57 0.52 0.51 0.54 0.52 0.43 0.43 0.46 0.48 0.51 0.57 0.71 0.93 1.15 1.34 1.49 1.66 1.99 2.14 2.12 2.17 2.09 2.02 1.90 1.91 1.83 1.93 2.18 2.24 2.36 2.47 2.32 2.47 2.58 2.27 1.97
0.78 0.78 0.81 0.81 0.83 0.82 0.84 0.98 1.00 0.95 0.79 0.61 0.51 0.46 0.43 0.39 0.42 0.44 0.39 0.34 0.31 0.34 0.40 0.49 0.60 0.82 1.13 1.43 1.64 1.82 2.04 2.29 2.38 2.26 2.22 2.22 2.27 2.31 2.19 2.14 2.29 2.34 2.45 2.68 2.72 2.67 2.81 2.75 2.38
0.87 0.56 0.54 0.60 0.76 0.98 0.82 1.13 1.00 0.91 0.81 0.65 0.55 0.48 0.43 0.41 0.40 0.38 0.36 0.36 0.32 0.34 0.38 0.47 0.59 0.74 0.96 1.22 1.54 1.79 2.06 2.36 2.40 2.34 2.32 2.34 2.40 2.46 2.41 2.36 2.44 2.50 2.50 2.62 2.68 2.67 2.94 3.18 2.91
0.66 0.43 0.45 0.57 0.62 0.69 0.62 0.88 0.92 0.75 0.82 0.72 0.63 0.55 0.47 0.43 0.42 0.37 0.35 0.36 0.38 0.41 0.45 0.56 0.69 0.79 0.95 1.19 1.52 1.83 2.03 2.22 2.39 2.38 2.27 2.19 2.24 2.22 2.17 2.28 2.45 2.48 2.50 2.51 2.68 2.80 3.02 3.07 3.03
0.48 0.49 0.51 0.56 0.64 0.77 0.49 0.66 0.86 0.77 0.73 0.69 0.63 0.58 0.49 0.40 0.42 0.44 0.47 0.47 0.46 0.51 0.60 0.73 0.82 0.98 1.10 1.19 1.31 1.46 1.67 1.96 2.12 2.25 2.24 2.22 2.20 2.08 1.97 2.07 2.16 2.26 2.34 2.34 2.40 2.56 2.73 2.95 3.10
0.46 0.72 0.98 0.97 0.95 0.82 0.40 0.56 0.75 0.63 0.54 0.56 0.55 0.55 0.52 0.49 0.53 0.60 0.67 0.64 0.61 0.63 0.77 0.87 0.96 1.00 1.05 1.02 1.04 1.16 1.32 1.56 1.70 1.82 1.99 2.05 2.09 2.04 1.97 1.92 1.97 2.04 2.10 2.21 2.39 2.41 2.48 2.67 2.87
0.47 0.62 0.99 1.09 0.93 0.75 0.58 0.76 0.77 0.54 0.46 0.48 0.50 0.49 0.49 0.56 0.64 0.79 0.89 0.90 0.85 0.85 0.89 0.89 0.94 0.88 0.88 0.91 0.94 1.00 1.06 1.21 1.33 1.41 1.57 1.69 1.69 1.67 1.63 1.66 1.74 1.88 1.98 2.06 2.21 2.30 2.28 2.36 2.42
0.43 0.38 0.41 0.62 0.63 0.72 0.68 0.78 0.73 0.49 0.42 0.45 0.50 0.51 0.53 0.66 0.79 0.97 1.13 1.17 1.08 1.01 0.95 0.95 0.99 0.93 0.85 0.88 0.96 0.98 1.01 1.01 1.03 1.09 1.09 1.17 1.25 1.27 1.28 1.34 1.48 1.67 1.79 1.84 1.94 2.12 2.10 2.16 2.16
0.29 0.32 0.41 0.70 0.94 0.99 0.81 0.85 0.90 0.66 0.51 0.52 0.61 0.71 0.81 0.95 1.00 1.14 1.26 1.26 1.22 1.24 1.19 1.03 1.00 1.02 0.95 1.02 1.04 0.97 0.93 0.89 0.90 0.95 0.99 1.01 1.09 1.17 1.24 1.25 1.31 1.44 1.53 1.61 1.77 1.91 2.00 2.03 2.02
0.27 0.33 0.49 0.74 0.82 1.13 1.28 1.23 0.87 0.69 0.66 0.66 0.74 1.02 1.10 1.16 1.22 1.24 1.31 1.30 1.19 1.17 1.14 1.11 1.06 1.04 1.05 1.06 1.08 0.96 0.94 0.93 0.92 0.90 0.94 1.02 1.09 1.18 1.23 1.27 1.30 1.31 1.39 1.45 1.54 1.67 1.82 1.85 1.86
0.39 0.51 0.67 1.07 1.05 0.98 1.32 1.41 0.91 0.75 0.77 0.78 0.80 0.85 0.92 1.13 1.21 1.20 1.27 1.21 1.09 1.06 0.95 0.99 1.06 1.07 1.14 1.14 1.06 0.99 1.03 1.04 1.06 1.02 0.96 0.99 1.04 1.03 1.12 1.22 1.19 1.18 1.23 1.32 1.42 1.51 1.57 1.67 1.63

GEFSSGP_prec_meanprecacc_270.txt.gz
Total_Precipitation_Accumulation
1.69 2.05 2.91 3.71 3.91 3.28 2.74 2.29 1.93 1.94 1.68 1.24 0.90 0.94 1.29 1.68 2.07 2.57 2.72 2.43 1.83 1.61 1.83 2.46 2.92 2.68 2.30 2.17 2.23 2.31 2.25 2.20 2.13 2.05 2.10 1.77 1.65 1.61 1.48 1.35 1.33 1.31 1.33 1.34 1.40 1.41 1.28 1.09 1.04
1.48 2.46 3.51 4.18 3.65 2.71 2.49 2.23 2.15 1.88 1.35 0.97 0.72 0.78 1.02 0.98 0.85 1.59 2.78 2.72 1.82 1.56 1.62 1.98 2.69 2.54 2.26 2.18 2.26 2.29 2.23 2.19 2.17 2.07 1.90 1.63 1.58 1.56 1.54 1.52 1.50 1.41 1.38 1.43 1.46 1.48 1.37 1.24 1.16
1.65 2.91 3.68 3.85 2.71 2.37 2.47 2.33 2.13 1.54 1.04 0.88 0.77 0.68 0.89 1.19 1.20 1.69 2.54 2.07 1.51 1.47 1.59 2.12 2.53 2.36 2.17 2.01 2.06 2.16 2.15 2.10 2.13 2.04 1.77 1.57 1.43 1.41 1.47 1.54 1.50 1.45 1.43 1.37 1.36 1.32 1.26 1.26 1.19
2.02 3.08 3.28 2.87 2.35 2.02 2.04 2.18 1.83 1.45 1.09 0.75 0.71 0.74 0.78 1.30 1.53 1.58 1.66 1.52 1.32 1.36 1.49 1.86 2.24 2.21 2.07 1.90 1.94 1.82 1.76 1.79 1.91 1.84 1.65 1.48 1.49 1.44 1.46 1.47 1.40 1.40 1.37 1.30 1.23 1.20 1.17 1.13 1.08
2.63 3.25 3.10 2.54 2.19 2.02 1.89 1.76 1.58 1.56 1.39 0.95 0.77 0.91 1.16 1.65 1.77 1.71 1.54 1.42 1.30 1.31 1.28 1.51 1.86 1.93 1.91 1.90 1.83 1.76 1.63 1.68 1.70 1.63 1.55 1.46 1.47 1.46 1.43 1.31 1.19 1.19 1.25 1.23 1.23 1.19 1.11 1.05 1.01
3.02 3.09 3.09 2.71 2.27 2.12 2.04 1.71 1.45 1.48 1.33 1.01 0.88 1.10 1.62 2.20 2.22 2.17 1.73 1.60 1.54 1.30 1.19 1.27 1.54 1.62 1.56 1.58 1.81 1.84 1.57 1.63 1.61 1.48 1.45 1.45 1.39 1.39 1.33 1.16 1.13 1.16 1.24 1.24 1.16 1.13 1.06 1.04 1.03
3.10 3.03 2.87 2.43 2.30 2.36 2.13 1.57 1.47 1.43 1.32 1.01 0.87 1.13 1.72 2.51 2.44 2.11 1.71 1.48 1.55 1.40 1.25 1.17 1.13 1.21 1.36 1.56 1.59 1.53 1.56 1.68 1.63 1.42 1.36 1.38 1.23 1.12 1.10 1.12 1.20 1.19 1.24 1.24 1.16 1.08 1.02 1.07 1.13
2.36 2.68 2.75 2.61 2.47 2.61 1.90 1.36 1.23 1.23 1.18 0.74 0.75 1.13 1.59 2.16 2.09 1.94 1.63 1.41 1.40 1.25 1.13 1.01 0.92 0.97 1.07 1.23 1.37 1.40 1.42 1.51 1.49 1.39 1.41 1.43 1.20 1.05 1.09 1.13 1.30 1.29 1.27 1.31 1.23 1.09 1.04 1.07 1.17
2.08 2.64 3.03 2.95 2.40 2.30 1.60 1.50 1.17 1.01 0.95 0.79 0.76 0.90 1.16 1.30 1.44 1.56 1.47 1.28 1.25 1.08 1.00 0.93 0.83 0.86 0.93 1.00 1.07 1.21 1.26 1.30 1.23 1.12 1.17 1.10 0.89 0.85 0.96 1.01 1.34 1.46 1.51 1.46 1.38 1.28 1.16 1.10 1.08
2.23 2.68 2.78 2.23 1.67 1.63 1.55 1.46 1.16 1.22 1.22 1.04 0.93 0.89 1.16 1.26 1.31 1.47 1.41 1.28 1.17 1.09 0.99 0.88 0.86 0.84 0.83 0.82 1.08 1.26 1.10 1.02 0.92 0.94 0.90 0.90 0.93 0.97 0.85 0.96 1.23 1.23 1.27 1.31 1.29 1.28 1.14 0.91 0.78
1.65 2.04 1.96 1.66 1.20 1.17 1.28 1.12 0.92 1.24 1.44 1.17 1.09 1.05 1.17 1.30 1.29 1.31 1.37 1.27 1.13 1.07 0.95 0.82 0.84 0.78 0.72 0.82 0.98 1.17 1.21 1.18 1.14 0.98 0.98 0.94 0.86 0.82 0.71 0.72 0.84 0.87 0.95 0.95 1.04 1.07 0.90 0.74 0.70
1.39 1.39 1.40 1.42 1.03 1.11 1.22 1.00 1.02 1.15 1.21 0.95 0.90 0.94 1.10 1.19 1.21 1.18 1.22 1.20 1.04 0.97 0.98 0.83 0.80 0.71 0.62 0.58 0.67 0.83 0.89 0.90 0.92 0.93 0.86 0.87 0.92 0.90 0.79 0.80 0.86 0.89 0.87 0.97 1.02 1.04 0.93 0.77 0.64
1.47 1.43 1.26 1.21 1.05 1.06 1.11 1.00 1.02 1.16 0.97 0.83 0.91 1.00 1.18 1.22 1.19 1.07 1.01 0.99 0.99 0.99 0.94 0.90 0.84 0.77 0.77 0.74 0.67 0.63 0.67 0.73 0.79 0.87 0.80 0.74 0.81 0.90 0.89 0.86 0.94 0.92 0.93 0.99 0.97 0.85 0.86 0.80 0.68
1.28 1.32 1.35 1.30 1.19 1.04 1.14 1.04 1.05 1.29 1.05 0.91 0.91 1.04 1.17 1.20 1.14 1.02 0.95 0.89 0.82 0.91 0.98 0.96 0.88 0.84 0.77 0.73 0.72 0.72 0.68 0.70 0.73 0.81 0.75 0.68 0.69 0.75 0.86 0.87 0.96 0.92 0.97 1.05 0.93 0.87 0.89 0.88 0.76
1.06 1.40 1.53 1.35 1.24 1.16 1.19 1.37 1.28 1.24 1.08 1.02 0.96 0.97 1.12 1.21 1.14 1.04 0.96 0.92 0.81 0.80 0.90 0.97 0.95 0.94 0.84 0.78 0.78 0.78 0.75 0.70 0.72 0.76 0.68 0.63 0.69 0.70 0.83 0.92 0.96 0.96 0.98 0.99 1.01 1.00 0.95 0.87 0.81
1.28 1.60 1.91 1.43 1.25 1.13 1.33 1.70 1.41 1.29 1.21 1.10 0.91 0.90 0.96 1.06 1.09 1.09 0.97 0.86 0.82 0.79 0.80 0.88 0.87 0.91 0.91 0.88 0.88 0.85 0.79 0.77 0.81 0.81 0.74 0.69 0.70 0.74 0.96 1.04 0.96 1.02 1.12 1.15 1.19 1.15 1.06 0.99 0.99
1.69 1.77 1.72 1.45 1.16 1.06 1.24 1.43 1.32 1.29 1.27 1.14 0.89 0.77 0.80 0.87 0.94 0.98 0.91 0.85 0.78 0.74 0.74 0.76 0.77 0.95 0.97 0.92 0.98 0.97 0.94 1.00 1.02 1.01 0.96 0.88 0.84 0.93 1.12 1.21 1.12 1.10 1.27 1.26 1.16 1.21 1.26 1.22 1.26
1.42 1.26 1.20 1.26 1.06 1.02 1.16 1.12 1.17 1.18 1.14 1.01 0.87 0.76 0.78 0.79 0.78 0.75 0.69 0.75 0.70 0.67 0.66 0.69 0.73 0.86 0.96 1.09 1.17 1.23 1.23 1.23 1.36 1.42 1.37 1.17 1.12 1.17 1.33 1.45 1.43 1.38 1.52 1.54 1.43 1.55 1.61 1.53 1.57
0.93 0.95 1.02 0.99 0.84 0.95 1.04 1.00 1.06 1.05 1.02 0.86 0.76 0.68 0.68 0.67 0.68 0.64 0.59 0.63 0.62 0.58 0.56 0.62 0.75 0.90 1.04 1.16 1.28 1.51 1.67 1.76 1.75 1.74 1.80 1.71 1.50 1.57 1.69 1.68 1.91 1.98 1.97 2.00 1.96 2.13 2.18 1.90 1.76
0.86 0.92 0.97 0.90 0.74 0.84 0.90 0.93 0.97 0.92 0.85 0.69 0.62 0.59 0.54 0.52 0.56 0.54 0.45 0.43 0.46 0.49 0.52 0.57 0.71 0.94 1.15 1.35 1.51 1.68 2.00 2.16 2.15 2.19 2.11 2.04 1.91 1.92 1.84 1.93 2.18 2.25 2.37 2.47 2.32 2.48 2.59 2.28 1.98
0.80 0.79 0.83 0.83 0.85 0.85 0.85 1.00 1.02 0.96 0.80 0.63 0.53 0.48 0.45 0.40 0.44 0.45 0.40 0.35 0.32 0.35 0.42 0.50 0.61 0.83 1.14 1.43 1.65 1.83 2.06 2.31 2.41 2.29 2.24 2.24 2.29 2.32 2.20 2.15 2.30 2.35 2.45 2.68 2.73 2.68 2.81 2.76 2.39
0.89 0.57 0.55 0.61 0.78 1.00 0.83 1.15 1.01 0.93 0.82 0.66 0.57 0.50 0.45 0.42 0.41 0.39 0.37 0.37 0.33 0.35 0.41 0.50 0.61 0.75 0.97 1.23 1.54 1.80 2.07 2.37 2.42 2.36 2.34 2.37 2.44 2.48 2.42 2.37 2.45 2.50 2.51 2.63 2.69 2.67 2.94 3.18 2.92
0.68 0.44 0.46 0.58 0.63 0.70 0.63 0.89 0.93 0.76 0.84 0.74 0.65 0.56 0.48 0.45 0.44 0.39 0.36 0.36 0.39 0.42 0.46 0.58 0.70 0.80 0.96 1.21 1.54 1.84 2.03 2.22 2.40 2.40 2.29 2.21 2.28 2.25 2.19 2.30 2.46 2.50 2.51 2.53 2.70 2.81 3.03 3.08 3.03
0.50 0.50 0.52 0.57 0.65 0.78 0.50 0.67 0.87 0.78 0.75 0.72 0.65 0.60 0.50 0.42 0.44 0.45 0.48 0.48 0.47 0.51 0.61 0.73 0.83 0.98 1.11 1.20 1.32 1.47 1.67 1.96 2.12 2.25 2.25 2.23 2.23 2.11 2.01 2.10 2.18 2.29 2.36 2.35 2.41 2.58 2.74 2.96 3.11
0.50 0.76 1.01 0.99 0.97 0.83 0.41 0.58 0.78 0.64 0.56 0.58 0.57 0.57 0.54 0.51 0.54 0.61 0.68 0.65 0.62 0.64 0.78 0.88 0.96 1.01 1.06 1.03 1.05 1.17 1.33 1.56 1.71 1.83 2.00 2.06 2.09 2.07 2.04 1.96 2.00 2.06 2.12 2.22 2.42 2.44 2.52 2.71 2.90
0.49 0.65 1.03 1.12 0.96 0.77 0.60 0.80 0.82 0.57 0.49 0.50 0.52 0.50 0.51 0.58 0.65 0.80 0.90 0.92 0.86 0.86 0.89 0.90 0.94 0.89 0.89 0.92 0.95 1.02 1.08 1.23 1.35 1.43 1.58 1.70 1.69 1.68 1.65 1.68 1.77 1.91 2.00 2.07 2.24 2.33 2.33 2.39 2.46
0.44 0.41 0.43 0.65 0.66 0.76 0.73 0.83 0.78 0.51 0.44 0.47 0.52 0.53 0.55 0.68 0.80 0.97 1.15 1.18 1.09 1.02 0.96 0.96 1.01 0.95 0.87 0.90 0.98 1.00 1.03 1.03 1.04 1.10 1.10 1.18 1.26 1.27 1.29 1.35 1.49 1.69 1.81 1.86 1.97 2.15 2.13 2.18 2.17
0.30 0.34 0.43 0.73 0.98 1.04 0.88 0.92 0.96 0.70 0.53 0.54 0.62 0.74 0.83 0.97 1.01 1.15 1.28 1.28 1.24 1.26 1.21 1.05 1.03 1.05 0.98 1.05 1.07 0.99 0.95 0.91 0.93 0.98 1.01 1.02 1.10 1.18 1.24 1.26 1.33 1.46 1.55 1.63 1.79 1.93 2.02 2.05 2.03
0.28 0.34 0.50 0.76 0.85 1.16 1.33 1.29 0.91 0.71 0.69 0.68 0.75 1.03 1.11 1.17 1.23 1.25 1.33 1.31 1.21 1.20 1.17 1.15 1.10 1.07 1.08 1.09 1.10 0.97 0.95 0.96 0.96 0.94 0.97 1.04 1.11 1.21 1.25 1.29 1.31 1.32 1.40 1.46 1.56 1.69 1.83 1.85 1.87
0.39 0.52 0.69 1.10 1.09 1.02 1.40 1.47 0.93 0.77 0.79 0.81 0.81 0.85 0.93 1.14 1.22 1.22 1.29 1.23 1.11 1.09 0.99 1.02 1.09 1.09 1.17 1.18 1.09 1.01 1.04 1.06 1.09 1.04 1.00 1.03 1.07 1.06 1.14 1.24 1.21 1.20 1.25 1.33 1.43 1.53 1.58 1.67 1.64

GEFSSGP_prec_meanprecacc_276.txt.gz
Total_Precipitation_Accumulation
1.70 2.05 2.91 3.71 3.92 3.28 2.74 2.30 1.94 1.97 1.71 1.26 0.93 0.97 1.31 1.69 2.08 2.58 2.74 2.45 1.84 1.63 1.86 2.52 2.99 2.74 2.36 2.21 2.27 2.35 2.30 2.23 2.16 2.08 2.13 1.80 1.68 1.66 1.54 1.42 1.39 1.34 1.36 1.39 1.46 1.47 1.33 1.14 1.08
1.49 2.46 3.51 4.19 3.65 2.71 2.50 2.24 2.16 1.89 1.37 0.98 0.73 0.79 1.02 0.99 0.85 1.60 2.80 2.74 1.83 1.58 1.64 2.01 2.74 2.60 2.30 2.21 2.29 2.33 2.27 2.22 2.20 2.11 1.94 1.66 1.61 1.61 1.61 1.62 1.56 1.45 1.43 1.50 1.52 1.52 1.41 1.28 1.19
1.65 2.91 3.68 3.85 2.71 2.38 2.48 2.34 2.14 1.56 1.07 0.90 0.78 0.68 0.89 1.19 1.21 1.70 2.56 2.08 1.52 1.48 1.60 2.15 2.58 2.42 2.23 2.05 2.11 2.19 2.17 2.13 2.16 2.08 1.80 1.60 1.46 1.45 1.54 1.66 1.61 1.53 1.50 1.44 1.41 1.37 1.31 1.30 1.23
2.02 3.08 3.28 2.87 2.35 2.03 2.05 2.19 1.85 1.48 1.12 0.77 0.72 0.75 0.79 1.31 1.55 1.59 1.67 1.52 1.32 1.37 1.50 1.88 2.28 2.25 2.12 1.93 1.97 1.84 1.77 1.81 1.94 1.87 1.68 1.53 1.52 1.47 1.52 1.59 1.56 1.53 1.45 1.35 1.28 1.24 1.21 1.18 1.11
2.64 3.26 3.10 2.54 2.19 2.03 1.89 1.78 1.60 1.58 1.41 0.97 0.78 0.92 1.17 1.67 1.79 1.72 1.55 1.43 1.31 1.32 1.29 1.53 1.90 1.97 1.95 1.94 1.88 1.79 1.64 1.70 1.74 1.68 1.60 1.49 1.50 1.50 1.49 1.39 1.27 1.27 1.31 1.28 1.28 1.25 1.15 1.09 1.05
3.04 3.09 3.09 2.71 2.28 2.13 2.05 1.74 1.48 1.50 1.35 1.03 0.89 1.11 1.64 2.22 2.24 2.18 1.73 1.61 1.55 1.30 1.20 1.28 1.58 1.66 1.60 1.63 1.86 1.88 1.60 1.66 1.63 1.52 1.47 1.47 1.44 1.44 1.40 1.22 1.18 1.21 1.30 1.31 1.22 1.18 1.11 1.10 1.09
3.11 3.03 2.87 2.43 2.31 2.37 2.14 1.59 1.48 1.45 1.33 1.02 0.87 1.14 1.74 2.53 2.46 2.12 1.72 1.48 1.55 1.40 1.25 1.18 1.15 1.24 1.40 1.61 1.64 1.59 1.60 1.71 1.66 1.45 1.39 1.43 1.29 1.18 1.16 1.17 1.25 1.25 1.31 1.31 1.22 1.13 1.07 1.13 1.20
2.37 2.68 2.75 2.62 2.49 2.63 1.91 1.37 1.24 1.23 1.18 0.75 0.75 1.13 1.60 2.17 2.10 1.95 1.64 1.42 1.40 1.25 1.13 1.02 0.93 0.99 1.09 1.26 1.43 1.46 1.46 1.54 1.54 1.46 1.49 1.51 1.28 1.13 1.18 1.20 1.38 1.38 1.35 1.37 1.28 1.15 1.09 1.13 1.23
2.09 2.65 3.03 2.96 2.42 2.32 1.62 1.52 1.20 1.03 0.96 0.79 0.77 0.90 1.17 1.31 1.46 1.58 1.49 1.30 1.27 1.09 1.01 0.93 0.83 0.87 0.94 1.01 1.10 1.26 1.30 1.33 1.25 1.16 1.23 1.15 0.94 0.91 1.02 1.07 1.40 1.52 1.58 1.52 1.42 1.33 1.21 1.13 1.11
2.23 2.69 2.79 2.24 1.69 1.64 1.57 1.47 1.19 1.25 1.24 1.06 0.94 0.90 1.18 1.28 1.33 1.50 1.43 1.29 1.19 1.10 1.00 0.88 0.87 0.84 0.84 0.83 1.09 1.27 1.10 1.02 0.93 0.94 0.92 0.91 0.93 0.99 0.88 1.01 1.29 1.28 1.32 1.36 1.34 1.32 1.16 0.92 0.78
1.66 2.06 1.98 1.68 1.21 1.18 1.29 1.12 0.93 1.26 1.45 1.18 1.10 1.05 1.18 1.32 1.32 1.34 1.38 1.29 1.15 1.08 0.96 0.84 0.86 0.80 0.73 0.83 0.99 1.17 1.21 1.18 1.14 0.98 0.98 0.94 0.87 0.83 0.73 0.76 0.88 0.89 0.97 0.97 1.07 1.09 0.91 0.75 0.71
1.40 1.40 1.42 1.44 1.05 1.12 1.22 1.00 1.03 1.17 1.22 0.96 0.90 0.95 1.14 1.23 1.25 1.20 1.23 1.22 1.05 0.98 1.00 0.84 0.81 0.74 0.64 0.60 0.68 0.84 0.89 0.90 0.92 0.94 0.86 0.87 0.93 0.91 0.81 0.82 0.88 0.90 0.88 0.98 1.04 1.05 0.94 0.77 0.64
1.48 1.45 1.27 1.22 1.06 1.08 1.13 1.01 1.03 1.17 0.98 0.84 0.92 1.02 1.22 1.28 1.23 1.11 1.03 1.02 1.02 1.01 0.97 0.92 0.85 0.79 0.79 0.75 0.68 0.65 0.68 0.75 0.81 0.88 0.81 0.75 0.82 0.91 0.92 0.89 0.95 0.93 0.94 1.00 0.97 0.85 0.86 0.81 0.69
1.29 1.34 1.38 1.31 1.21 1.06 1.16 1.06 1.06 1.30 1.06 0.93 0.94 1.06 1.20 1.24 1.18 1.07 0.99 0.93 0.85 0.93 1.00 0.98 0.90 0.87 0.80 0.75 0.74 0.74 0.70 0.72 0.76 0.82 0.77 0.69 0.70 0.75 0.87 0.88 0.97 0.93 0.97 1.05 0.94 0.87 0.90 0.89 0.78
1.08 1.44 1.57 1.38 1.27 1.18 1.20 1.38 1.29 1.25 1.09 1.05 1.01 1.02 1.15 1.24 1.17 1.07 0.99 0.96 0.85 0.83 0.93 1.01 0.98 0.97 0.87 0.80 0.80 0.81 0.77 0.72 0.73 0.77 0.69 0.64 0.70 0.70 0.83 0.92 0.96 0.96 0.98 1.00 1.02 1.01 0.96 0.89 0.83
1.29 1.63 1.94 1.47 1.28 1.15 1.35 1.71 1.43 1.30 1.22 1.13 0.95 0.94 1.00 1.08 1.11 1.12 1.01 0.91 0.87 0.84 0.85 0.91 0.89 0.94 0.96 0.92 0.91 0.87 0.81 0.80 0.83 0.83 0.75 0.70 0.70 0.75 0.97 1.06 0.97 1.02 1.12 1.16 1.20 1.16 1.08 1.01 1.00
1.70 1.79 1.74 1.47 1.19 1.07 1.25 1.43 1.33 1.30 1.29 1.16 0.91 0.80 0.83 0.89 0.96 1.00 0.93 0.88 0.83 0.80 0.78 0.79 0.79 0.97 1.00 0.96 1.01 0.99 0.96 1.02 1.05 1.03 0.97 0.89 0.85 0.95 1.14 1.23 1.13 1.11 1.27 1.27 1.18 1.23 1.28 1.23 1.26
1.43 1.27 1.21 1.27 1.08 1.03 1.16 1.13 1.18 1.19 1.14 1.03 0.88 0.78 0.81 0.82 0.80 0.76 0.70 0.77 0.74 0.70 0.69 0.71 0.75 0.88 0.99 1.11 1.19 1.25 1.25 1.25 1.38 1.43 1.38 1.18 1.13 1.17 1.34 1.46 1.44 1.38 1.52 1.55 1.44 1.57 1.63 1.55 1.59
0.94 0.96 1.03 1.01 0.84 0.95 1.04 1.01 1.07 1.06 1.02 0.87 0.77 0.69 0.70 0.69 0.70 0.66 0.61 0.66 0.66 0.60 0.58 0.63 0.76 0.91 1.06 1.18 1.30 1.53 1.68 1.78 1.78 1.77 1.81 1.71 1.51 1.57 1.70 1.69 1.92 1.98 1.97 2.01 1.97 2.15 2.20 1.92 1.78
0.87 0.92 0.97 0.91 0.75 0.84 0.91 0.94 0.98 0.92 0.85 0.70 0.63 0.60 0.56 0.54 0.57 0.56 0.48 0.46 0.49 0.51 0.53 0.58 0.72 0.95 1.16 1.36 1.53 1.70 2.02 2.18 2.17 2.23 2.13 2.05 1.92 1.93 1.85 1.94 2.19 2.25 2.37 2.47 2.33 2.49 2.60 2.30 2.01
0.81 0.80 0.84 0.83 0.86 0.86 0.86 1.00 1.03 0.97 0.81 0.64 0.54 0.49 0.46 0.42 0.46 0.47 0.41 0.37 0.34 0.38 0.44 0.52 0.62 0.84 1.15 1.44 1.67 1.85 2.08 2.34 2.45 2.34 2.28 2.27 2.31 2.34 2.21 2.15 2.30 2.35 2.46 2.68 2.73 2.69 2.82 2.77 2.42
0.90 0.58 0.56 0.62 0.79 1.02 0.85 1.17 1.03 0.93 0.83 0.67 0.58 0.51 0.46 0.44 0.44 0.42 0.39 0.38 0.35 0.38 0.43 0.53 0.62 0.77 0.98 1.24 1.55 1.81 2.08 2.39 2.45 2.40 2.38 2.41 2.47 2.51 2.44 2.38 2.46 2.51 2.52 2.64 2.70 2.69 2.96 3.19 2.93
0.69 0.45 0.47 0.60 0.65 0.71 0.65 0.90 0.94 0.77 0.85 0.76 0.66 0.57 0.49 0.46 0.46 0.41 0.40 0.39 0.42 0.44 0.49 0.60 0.71 0.82 0.99 1.24 1.55 1.85 2.04 2.23 2.41 2.41 2.31 2.24 2.31 2.28 2.20 2.30 2.47 2.51 2.53 2.53 2.71 2.82 3.06 3.10 3.04
0.51 0.52 0.54 0.59 0.67 0.80 0.52 0.69 0.89 0.79 0.76 0.72 0.66 0.62 0.52 0.43 0.46 0.48 0.51 0.50 0.49 0.53 0.63 0.76 0.85 1.00 1.13 1.22 1.33 1.47 1.68 1.97 2.13 2.26 2.25 2.24 2.24 2.13 2.03 2.11 2.20 2.30 2.38 2.36 2.42 2.59 2.76 2.98 3.12
0.51 0.77 1.02 1.00 0.98 0.85 0.42 0.61 0.81 0.66 0.58 0.59 0.58 0.58 0.56 0.52 0.56 0.64 0.71 0.67 0.63 0.66 0.79 0.90 0.98 1.03 1.08 1.05 1.06 1.17 1.34 1.57 1.72 1.83 2.00 2.06 2.11 2.08 2.06 1.99 2.03 2.08 2.15 2.25 2.44 2.46 2.53 2.72 2.91
0.49 0.65 1.04 1.13 0.97 0.79 0.63 0.84 0.87 0.60 0.51 0.51 0.53 0.52 0.53 0.60 0.68 0.83 0.93 0.94 0.87 0.87 0.91 0.92 0.98 0.93 0.93 0.95 0.97 1.04 1.10 1.25 1.36 1.44 1.59 1.70 1.70 1.69 1.67 1.72 1.82 1.95 2.04 2.12 2.28 2.37 2.37 2.43 2.49
0.45 0.42 0.44 0.66 0.67 0.77 0.77 0.87 0.81 0.55 0.46 0.49 0.53 0.55 0.57 0.70 0.82 0.99 1.16 1.19 1.10 1.03 0.97 0.98 1.05 0.99 0.91 0.94 1.02 1.04 1.06 1.05 1.05 1.11 1.11 1.19 1.26 1.28 1.31 1.38 1.52 1.72 1.84 1.89 2.00 2.18 2.18 2.24 2.22
0.31 0.35 0.45 0.74 0.99 1.06 0.90 0.94 0.99 0.71 0.54 0.55 0.63 0.74 0.84 0.98 1.03 1.17 1.29 1.29 1.25 1.27 1.22 1.07 1.07 1.10 1.02 1.10 1.12 1.04 1.01 0.96 0.96 1.00 1.02 1.03 1.11 1.19 1.26 1.28 1.35 1.48 1.56 1.65 1.81 1.94 2.03 2.08 2.05
0.29 0.36 0.52 0.77 0.86 1.17 1.34 1.30 0.91 0.72 0.69 0.69 0.76 1.04 1.13 1.19 1.25 1.27 1.35 1.34 1.23 1.21 1.18 1.17 1.13 1.12 1.13 1.14 1.14 1.01 0.99 1.01 1.00 0.98 0.99 1.05 1.12 1.22 1.26 1.30 1.33 1.34 1.42 1.47 1.57 1.70 1.84 1.86 1.88
0.40 0.53 0.71 1.11 1.10 1.03 1.41 1.47 0.94 0.77 0.80 0.81 0.82 0.88 0.95 1.16 1.24 1.24 1.32 1.27 1.15 1.12 1.02 1.07 1.14 1.14 1.21 1.23 1.14 1.05 1.09 1.11 1.13 1.09 1.04 1.07 1.10 1.09 1.16 1.26 1.22 1.21 1.25 1.34 1.44 1.53 1.59 1.68 1.65

GEFSSGP_prec_meanprecacc_282.txt.gz
Total_Precipitation_Accumulation
1.71 2.06 2.92 3.72 3.92 3.29 2.75 2.30 1.95 1.98 1.72 1.28 0.95 0.99 1.32 1.70 2.09 2.60 2.75 2.46 1.86 1.64 1.89 2.57 3.07 2.81 2.43 2.29 2.36 2.42 2.34 2.26 2.19 2.12 2.18 1.84 1.72 1.71 1.61 1.48 1.44 1.40 1.42 1.43 1.50 1.51 1.37 1.19 1.11
1.49 2.47 3.51 4.19 3.66 2.71 2.50 2.24 2.17 1.90 1.38 1.00 0.75 0.81 1.03 0.99 0.86 1.61 2.81 2.74 1.84 1.59 1.67 2.05 2.80 2.66 2.34 2.26 2.36 2.37 2.30 2.25 2.24 2.16 2.00 1.71 1.67 1.69 1.73 1.75 1.65 1.51 1.48 1.55 1.56 1.57 1.47 1.34 1.24
1.66 2.91 3.68 3.86 2.72 2.38 2.48 2.34 2.15 1.57 1.09 0.92 0.80 0.69 0.91 1.20 1.22 1.71 2.56 2.09 1.52 1.49 1.62 2.18 2.62 2.46 2.28 2.10 2.16 2.23 2.21 2.17 2.22 2.15 1.86 1.65 1.54 1.57 1.64 1.74 1.70 1.60 1.56 1.51 1.49 1.42 1.37 1.37 1.28
2.03 3.09 3.29 2.88 2.36 2.03 2.05 2.20 1.86 1.50 1.15 0.79 0.74 0.76 0.80 1.32 1.56 1.60 1.67 1.53 1.33 1.38 1.51 1.92 2.33 2.29 2.17 1.99 2.01 1.88 1.80 1.85 1.99 1.93 1.75 1.58 1.60 1.60 1.65 1.73 1.67 1.61 1.53 1.43 1.39 1.35 1.29 1.24 1.17
2.65 3.26 3.10 2.55 2.20 2.03 1.90 1.79 1.62 1.61 1.43 0.99 0.79 0.93 1.18 1.69 1.81 1.72 1.55 1.43 1.31 1.34 1.32 1.55 1.93 2.02 2.00 1.98 1.92 1.84 1.67 1.73 1.77 1.71 1.64 1.53 1.57 1.63 1.64 1.54 1.38 1.36 1.38 1.34 1.38 1.38 1.25 1.16 1.11
3.05 3.09 3.10 2.72 2.29 2.14 2.06 1.75 1.50 1.52 1.37 1.04 0.89 1.11 1.65 2.25 2.27 2.19 1.74 1.61 1.56 1.32 1.22 1.30 1.61 1.71 1.66 1.68 1.91 1.93 1.64 1.68 1.66 1.55 1.52 1.53 1.53 1.55 1.48 1.31 1.26 1.29 1.38 1.41 1.32 1.26 1.19 1.17 1.16
3.12 3.03 2.88 2.44 2.32 2.38 2.15 1.59 1.49 1.46 1.34 1.03 0.87 1.14 1.75 2.56 2.49 2.14 1.74 1.49 1.55 1.41 1.26 1.19 1.17 1.27 1.44 1.67 1.71 1.65 1.66 1.74 1.69 1.49 1.45 1.49 1.35 1.25 1.23 1.26 1.34 1.33 1.39 1.37 1.27 1.18 1.14 1.20 1.26
2.37 2.69 2.76 2.63 2.50 2.65 1.91 1.38 1.25 1.25 1.20 0.75 0.76 1.14 1.61 2.19 2.12 1.98 1.66 1.43 1.41 1.26 1.15 1.03 0.95 1.01 1.12 1.32 1.50 1.52 1.51 1.58 1.57 1.49 1.54 1.55 1.34 1.19 1.25 1.27 1.46 1.45 1.40 1.42 1.33 1.21 1.16 1.20 1.28
2.09 2.66 3.04 2.97 2.44 2.33 1.62 1.53 1.21 1.04 0.96 0.80 0.77 0.90 1.17 1.32 1.48 1.61 1.51 1.32 1.27 1.10 1.03 0.95 0.85 0.88 0.96 1.04 1.14 1.32 1.34 1.35 1.27 1.17 1.25 1.17 0.97 0.94 1.06 1.12 1.45 1.58 1.63 1.56 1.46 1.38 1.27 1.17 1.15
2.24 2.71 2.80 2.25 1.71 1.66 1.58 1.48 1.20 1.27 1.26 1.07 0.94 0.90 1.18 1.30 1.35 1.52 1.45 1.31 1.20 1.12 1.01 0.91 0.89 0.86 0.85 0.84 1.11 1.29 1.11 1.03 0.93 0.95 0.92 0.91 0.95 1.01 0.90 1.04 1.34 1.32 1.37 1.40 1.37 1.34 1.18 0.94 0.79
1.66 2.06 1.99 1.69 1.24 1.19 1.30 1.12 0.93 1.28 1.46 1.19 1.11 1.06 1.19 1.34 1.34 1.35 1.39 1.30 1.16 1.09 0.98 0.85 0.88 0.82 0.75 0.84 1.00 1.18 1.21 1.19 1.15 0.99 0.98 0.95 0.88 0.84 0.75 0.78 0.90 0.92 0.99 0.99 1.08 1.10 0.92 0.76 0.72
1.41 1.40 1.43 1.46 1.07 1.14 1.24 1.01 1.04 1.18 1.23 0.96 0.91 0.96 1.15 1.25 1.27 1.22 1.24 1.23 1.06 0.99 1.01 0.85 0.82 0.75 0.66 0.61 0.69 0.85 0.90 0.91 0.93 0.94 0.87 0.88 0.94 0.92 0.82 0.83 0.89 0.92 0.90 1.00 1.05 1.06 0.95 0.79 0.66
1.49 1.46 1.28 1.24 1.08 1.09 1.14 1.02 1.04 1.19 0.99 0.85 0.94 1.05 1.25 1.32 1.28 1.15 1.05 1.03 1.03 1.02 0.98 0.92 0.86 0.80 0.81 0.77 0.69 0.66 0.69 0.76 0.82 0.90 0.82 0.76 0.83 0.93 0.93 0.90 0.96 0.94 0.95 1.01 0.98 0.86 0.87 0.83 0.71
1.30 1.36 1.39 1.32 1.22 1.07 1.18 1.07 1.07 1.32 1.08 0.96 0.96 1.10 1.25 1.30 1.23 1.11 1.04 0.96 0.87 0.94 1.01 1.00 0.91 0.88 0.81 0.77 0.77 0.76 0.72 0.75 0.78 0.84 0.77 0.70 0.72 0.77 0.88 0.90 0.98 0.94 0.98 1.06 0.94 0.88 0.90 0.90 0.80
1.09 1.46 1.59 1.40 1.28 1.19 1.22 1.40 1.30 1.26 1.11 1.08 1.04 1.04 1.19 1.29 1.20 1.10 1.04 1.02 0.88 0.84 0.95 1.02 0.99 0.98 0.88 0.82 0.82 0.83 0.80 0.75 0.75 0.79 0.70 0.65 0.71 0.72 0.84 0.93 0.97 0.97 0.99 1.00 1.02 1.02 0.97 0.90 0.84
1.30 1.65 1.97 1.49 1.31 1.17 1.37 1.73 1.44 1.31 1.24 1.15 0.98 0.97 1.04 1.11 1.13 1.14 1.05 0.97 0.93 0.89 0.88 0.93 0.91 0.95 0.97 0.95 0.93 0.91 0.85 0.83 0.85 0.85 0.78 0.72 0.71 0.76 0.99 1.07 0.97 1.03 1.13 1.17 1.21 1.17 1.09 1.02 1.01
1.72 1.80 1.75 1.49 1.22 1.09 1.28 1.46 1.34 1.31 1.31 1.18 0.95 0.83 0.86 0.90 0.97 1.01 0.95 0.93 0.88 0.84 0.82 0.83 0.83 1.00 1.02 0.98 1.04 1.04 1.00 1.05 1.08 1.06 1.01 0.92 0.87 0.97 1.16 1.24 1.14 1.12 1.28 1.28 1.18 1.23 1.29 1.24 1.28
1.45 1.28 1.22 1.30 1.10 1.05 1.18 1.14 1.19 1.20 1.15 1.04 0.92 0.81 0.83 0.83 0.80 0.78 0.73 0.81 0.77 0.73 0.72 0.75 0.80 0.93 1.02 1.14 1.21 1.27 1.27 1.28 1.41 1.46 1.41 1.21 1.15 1.19 1.35 1.48 1.45 1.39 1.53 1.56 1.45 1.58 1.65 1.56 1.61
0.95 0.98 1.04 1.02 0.85 0.96 1.05 1.01 1.08 1.07 1.03 0.88 0.79 0.72 0.72 0.70 0.70 0.67 0.64 0.70 0.69 0.62 0.60 0.66 0.80 0.94 1.08 1.21 1.33 1.55 1.70 1.80 1.80 1.79 1.83 1.73 1.52 1.58 1.71 1.70 1.93 1.99 1.98 2.02 1.99 2.16 2.23 1.95 1.80
0.88 0.93 0.98 0.91 0.76 0.85 0.91 0.94 0.98 0.93 0.86 0.71 0.65 0.61 0.57 0.55 0.58 0.57 0.49 0.49 0.52 0.54 0.57 0.63 0.76 0.98 1.18 1.38 1.55 1.72 2.04 2.19 2.18 2.24 2.15 2.07 1.94 1.94 1.86 1.95 2.20 2.26 2.38 2.48 2.34 2.52 2.64 2.33 2.03
0.82 0.81 0.85 0.84 0.87 0.87 0.87 1.01 1.03 0.97 0.81 0.65 0.56 0.50 0.47 0.43 0.46 0.48 0.42 0.39 0.38 0.42 0.49 0.58 0.69 0.89 1.17 1.46 1.68 1.87 2.10 2.35 2.46 2.35 2.30 2.29 2.33 2.37 2.23 2.18 2.32 2.36 2.47 2.70 2.74 2.70 2.84 2.80 2.44
0.91 0.59 0.57 0.63 0.81 1.03 0.86 1.19 1.03 0.94 0.83 0.68 0.59 0.51 0.46 0.45 0.45 0.43 0.40 0.41 0.39 0.43 0.49 0.60 0.69 0.82 1.01 1.26 1.57 1.83 2.09 2.40 2.46 2.41 2.39 2.42 2.50 2.54 2.47 2.41 2.48 2.52 2.53 2.65 2.71 2.70 2.98 3.21 2.97
0.70 0.45 0.48 0.60 0.66 0.73 0.66 0.91 0.95 0.78 0.85 0.76 0.66 0.58 0.50 0.46 0.47 0.43 0.42 0.42 0.45 0.48 0.54 0.68 0.79 0.87 1.02 1.27 1.57 1.86 2.06 2.24 2.42 2.42 2.32 2.25 2.33 2.30 2.22 2.32 2.48 2.52 2.54 2.55 2.72 2.84 3.09 3.15 3.07
0.53 0.53 0.54 0.59 0.69 0.82 0.52 0.70 0.90 0.81 0.77 0.73 0.67 0.62 0.52 0.43 0.47 0.49 0.53 0.52 0.51 0.56 0.66 0.80 0.91 1.05 1.17 1.26 1.36 1.49 1.69 1.98 2.13 2.27 2.26 2.24 2.25 2.14 2.03 2.12 2.22 2.33 2.40 2.38 2.43 2.60 2.79 3.04 3.18
0.53 0.78 1.04 1.01 0.99 0.86 0.43 0.61 0.83 0.67 0.58 0.59 0.59 0.59 0.56 0.53 0.57 0.65 0.72 0.68 0.65 0.68 0.82 0.94 1.03 1.07 1.11 1.08 1.09 1.19 1.35 1.58 1.73 1.85 2.01 2.07 2.11 2.09 2.07 2.00 2.05 2.14 2.19 2.28 2.46 2.47 2.55 2.75 2.95
0.51 0.66 1.06 1.15 0.98 0.80 0.64 0.85 0.88 0.60 0.51 0.52 0.54 0.53 0.53 0.60 0.69 0.84 0.95 0.95 0.89 0.88 0.92 0.94 1.01 0.96 0.95 0.97 1.00 1.06 1.12 1.26 1.37 1.46 1.59 1.71 1.70 1.70 1.68 1.73 1.83 1.99 2.08 2.15 2.31 2.40 2.40 2.46 2.52
0.46 0.43 0.45 0.67 0.67 0.79 0.78 0.88 0.82 0.56 0.48 0.50 0.54 0.55 0.58 0.71 0.83 1.00 1.17 1.20 1.12 1.05 0.99 1.01 1.08 1.02 0.94 0.96 1.04 1.06 1.08 1.07 1.06 1.13 1.12 1.19 1.26 1.28 1.32 1.38 1.53 1.74 1.87 1.91 2.02 2.21 2.21 2.27 2.27
0.32 0.36 0.47 0.76 1.01 1.08 0.91 0.95 0.99 0.72 0.56 0.56 0.64 0.75 0.85 0.98 1.03 1.18 1.30 1.30 1.26 1.29 1.24 1.09 1.09 1.13 1.05 1.13 1.15 1.07 1.02 0.97 0.97 1.02 1.03 1.04 1.11 1.19 1.26 1.29 1.36 1.49 1.58 1.67 1.83 1.96 2.06 2.12 2.09
0.30 0.36 0.53 0.79 0.87 1.18 1.36 1.31 0.92 0.72 0.70 0.69 0.77 1.05 1.13 1.19 1.26 1.28 1.36 1.34 1.24 1.22 1.19 1.18 1.14 1.14 1.15 1.17 1.18 1.04 1.01 1.03 1.02 1.00 1.02 1.07 1.14 1.23 1.27 1.31 1.34 1.35 1.43 1.48 1.58 1.72 1.86 1.88 1.90
0.41 0.53 0.71 1.12 1.11 1.04 1.42 1.48 0.94 0.77 0.80 0.81 0.83 0.89 0.96 1.16 1.25 1.24 1.32 1.27 1.16 1.14 1.04 1.09 1.16 1.16 1.24 1.26 1.17 1.09 1.12 1.14 1.15 1.11 1.07 1.09 1.12 1.11 1.17 1.28 1.24 1.23 1.27 1.34 1.44 1.54 1.60 1.69 1.65

GEFSSGP_prec_meanprecacc_288.txt.gz
Total_Precipitation_Accumulation
1.72 2.08 2.95 3.75 4.00 3.38 2.81 2.33 1.97 2.00 1.74 1.30 0.96 1.01 1.35 1.71 2.12 2.64 2.78 2.48 1.87 1.67 1.93 2.60 3.09 2.86 2.52 2.37 2.42 2.49 2.38 2.29 2.23 2.15 2.22 1.89 1.79 1.77 1.67 1.53 1.49 1.45 1.47 1.48 1.55 1.56 1.42 1.23 1.14
1.51 2.49 3.54 4.23 3.73 2.79 2.56 2.27 2.20 1.93 1.39 1.01 0.76 0.82 1.04 1.00 0.86 1.62 2.83 2.76 1.85 1.60 1.70 2.07 2.82 2.69 2.41 2.35 2.44 2.44 2.35 2.29 2.28 2.20 2.02 1.74 1.72 1.75 1.78 1.79 1.71 1.56 1.54 1.61 1.60 1.60 1.51 1.38 1.26
1.69 2.93 3.71 3.90 2.77 2.43 2.53 2.37 2.18 1.59 1.10 0.93 0.80 0.70 0.92 1.21 1.23 1.72 2.58 2.10 1.53 1.50 1.65 2.20 2.64 2.49 2.33 2.15 2.22 2.30 2.28 2.22 2.27 2.19 1.88 1.71 1.65 1.66 1.70 1.80 1.76 1.68 1.62 1.58 1.53 1.45 1.41 1.41 1.31
2.06 3.11 3.31 2.92 2.41 2.05 2.07 2.22 1.89 1.52 1.17 0.80 0.74 0.77 0.81 1.33 1.56 1.61 1.68 1.53 1.33 1.40 1.53 1.93 2.36 2.33 2.22 2.02 2.06 1.96 1.87 1.90 2.03 1.98 1.80 1.69 1.72 1.66 1.71 1.79 1.74 1.68 1.58 1.49 1.44 1.39 1.33 1.30 1.24
2.68 3.29 3.14 2.60 2.24 2.05 1.91 1.81 1.65 1.64 1.46 1.00 0.81 0.95 1.20 1.70 1.82 1.72 1.55 1.43 1.32 1.37 1.34 1.56 1.95 2.04 2.04 2.01 1.95 1.89 1.73 1.77 1.82 1.76 1.71 1.64 1.70 1.72 1.70 1.61 1.45 1.41 1.42 1.39 1.46 1.47 1.32 1.26 1.21
3.11 3.13 3.13 2.78 2.33 2.16 2.07 1.76 1.53 1.54 1.38 1.06 0.91 1.14 1.69 2.28 2.28 2.19 1.75 1.62 1.58 1.36 1.25 1.31 1.62 1.73 1.69 1.71 1.94 1.97 1.68 1.72 1.70 1.59 1.56 1.59 1.59 1.60 1.53 1.35 1.31 1.33 1.44 1.48 1.43 1.37 1.27 1.26 1.23
3.16 3.07 2.91 2.48 2.36 2.40 2.16 1.60 1.51 1.48 1.36 1.04 0.89 1.16 1.78 2.60 2.52 2.15 1.75 1.50 1.56 1.43 1.30 1.21 1.19 1.28 1.47 1.69 1.73 1.68 1.69 1.77 1.72 1.53 1.49 1.52 1.39 1.29 1.26 1.30 1.39 1.37 1.43 1.42 1.32 1.24 1.21 1.27 1.32
2.39 2.71 2.79 2.66 2.55 2.68 1.93 1.38 1.26 1.27 1.21 0.76 0.76 1.15 1.63 2.22 2.15 2.00 1.68 1.44 1.41 1.27 1.18 1.06 0.96 1.02 1.14 1.33 1.50 1.53 1.53 1.60 1.58 1.51 1.56 1.58 1.37 1.22 1.28 1.30 1.51 1.50 1.44 1.46 1.37 1.25 1.20 1.25 1.33
2.11 2.69 3.08 3.00 2.47 2.37 1.64 1.54 1.22 1.05 0.97 0.80 0.77 0.91 1.18 1.33 1.50 1.64 1.55 1.36 1.29 1.11 1.05 0.98 0.87 0.91 0.99 1.05 1.14 1.33 1.36 1.37 1.28 1.19 1.28 1.22 1.02 0.98 1.09 1.15 1.48 1.62 1.67 1.60 1.51 1.42 1.31 1.21 1.18
2.27 2.75 2.83 2.27 1.74 1.69 1.59 1.49 1.23 1.29 1.28 1.08 0.95 0.91 1.19 1.31 1.38 1.55 1.48 1.36 1.25 1.14 1.03 0.93 0.91 0.89 0.89 0.86 1.12 1.31 1.13 1.06 0.96 0.97 0.96 0.97 1.01 1.06 0.93 1.06 1.36 1.36 1.40 1.44 1.41 1.36 1.21 0.98 0.82
1.68 2.09 2.00 1.70 1.25 1.21 1.31 1.13 0.95 1.32 1.50 1.20 1.12 1.07 1.21 1.36 1.37 1.38 1.44 1.33 1.19 1.10 0.99 0.87 0.90 0.85 0.78 0.87 1.02 1.21 1.25 1.22 1.17 1.01 1.01 0.97 0.91 0.87 0.77 0.79 0.92 0.95 1.03 1.01 1.10 1.12 0.94 0.78 0.74
1.42 1.42 1.43 1.46 1.08 1.15 1.25 1.01 1.04 1.19 1.25 0.98 0.94 0.98 1.17 1.27 1.29 1.24 1.27 1.25 1.07 1.01 1.03 0.86 0.84 0.77 0.68 0.62 0.70 0.86 0.92 0.93 0.94 0.97 0.90 0.91 0.97 0.96 0.85 0.86 0.92 0.95 0.93 1.04 1.09 1.09 0.96 0.81 0.68
1.51 1.47 1.28 1.24 1.08 1.10 1.15 1.02 1.05 1.20 1.00 0.87 0.96 1.08 1.28 1.34 1.30 1.16 1.07 1.06 1.06 1.04 0.99 0.94 0.87 0.82 0.82 0.78 0.70 0.67 0.70 0.79 0.83 0.90 0.83 0.79 0.86 0.96 0.97 0.93 1.01 0.98 0.99 1.04 1.02 0.89 0.90 0.86 0.74
1.32 1.37 1.40 1.33 1.22 1.08 1.19 1.07 1.07 1.33 1.10 0.98 0.99 1.14 1.29 1.32 1.25 1.13 1.06 1.00 0.92 0.98 1.03 1.02 0.93 0.90 0.82 0.77 0.77 0.77 0.73 0.77 0.80 0.85 0.79 0.71 0.73 0.79 0.91 0.93 1.02 0.97 1.00 1.07 0.96 0.90 0.94 0.94 0.83
1.10 1.49 1.62 1.42 1.31 1.19 1.23 1.41 1.31 1.27 1.13 1.10 1.07 1.09 1.25 1.33 1.24 1.12 1.05 1.04 0.92 0.90 1.00 1.06 1.02 1.00 0.90 0.83 0.83 0.84 0.82 0.77 0.79 0.80 0.71 0.66 0.72 0.73 0.85 0.94 0.98 0.99 1.00 1.01 1.03 1.03 0.98 0.91 0.86
1.31 1.69 2.00 1.51 1.33 1.18 1.38 1.74 1.45 1.33 1.26 1.17 1.00 1.02 1.09 1.16 1.17 1.16 1.06 0.99 0.95 0.92 0.92 0.96 0.94 0.98 1.00 0.96 0.95 0.93 0.87 0.85 0.88 0.87 0.80 0.73 0.73 0.78 1.00 1.07 0.98 1.03 1.13 1.18 1.22 1.19 1.11 1.03 1.03
1.75 1.84 1.78 1.51 1.24 1.12 1.30 1.48 1.37 1.33 1.33 1.20 0.97 0.86 0.91 0.97 1.00 1.04 0.98 0.97 0.92 0.88 0.86 0.86 0.85 1.03 1.05 1.01 1.06 1.06 1.02 1.07 1.10 1.09 1.03 0.94 0.88 0.98 1.17 1.26 1.15 1.13 1.29 1.29 1.19 1.25 1.31 1.27 1.31
1.49 1.31 1.24 1.31 1.12 1.08 1.20 1.16 1.21 1.22 1.17 1.06 0.93 0.83 0.85 0.86 0.84 0.80 0.75 0.84 0.81 0.77 0.76 0.78 0.83 0.95 1.04 1.17 1.24 1.29 1.29 1.30 1.43 1.49 1.43 1.22 1.17 1.20 1.37 1.50 1.46 1.40 1.55 1.58 1.46 1.59 1.67 1.58 1.64
0.97 1.00 1.06 1.04 0.88 0.99 1.08 1.03 1.09 1.07 1.04 0.90 0.80 0.74 0.74 0.71 0.71 0.68 0.65 0.72 0.72 0.65 0.63 0.70 0.84 0.97 1.09 1.23 1.38 1.59 1.73 1.82 1.83 1.81 1.84 1.75 1.54 1.60 1.73 1.72 1.94 2.00 1.99 2.03 2.00 2.18 2.24 1.96 1.81
0.89 0.95 1.00 0.93 0.77 0.87 0.93 0.95 0.99 0.94 0.88 0.72 0.66 0.63 0.59 0.55 0.58 0.57 0.49 0.51 0.54 0.56 0.60 0.66 0.81 1.02 1.20 1.41 1.58 1.74 2.06 2.21 2.21 2.26 2.17 2.09 1.95 1.95 1.88 1.99 2.23 2.28 2.39 2.50 2.36 2.53 2.66 2.34 2.05
0.83 0.83 0.87 0.85 0.88 0.88 0.88 1.03 1.04 0.99 0.84 0.67 0.57 0.51 0.48 0.44 0.47 0.49 0.43 0.40 0.39 0.44 0.51 0.61 0.72 0.93 1.21 1.49 1.71 1.88 2.12 2.38 2.49 2.37 2.33 2.31 2.35 2.38 2.25 2.22 2.38 2.42 2.51 2.72 2.76 2.71 2.86 2.83 2.47
0.93 0.60 0.57 0.63 0.83 1.07 0.88 1.23 1.06 0.96 0.86 0.69 0.59 0.52 0.48 0.46 0.46 0.44 0.42 0.42 0.40 0.44 0.52 0.63 0.74 0.88 1.06 1.30 1.60 1.86 2.13 2.44 2.48 2.42 2.40 2.43 2.50 2.55 2.48 2.44 2.52 2.57 2.56 2.67 2.72 2.71 3.00 3.24 3.02
0.72 0.46 0.48 0.61 0.68 0.76 0.68 0.95 0.98 0.80 0.87 0.78 0.69 0.60 0.50 0.48 0.48 0.44 0.43 0.44 0.46 0.49 0.55 0.70 0.82 0.94 1.10 1.34 1.62 1.92 2.10 2.28 2.45 2.45 2.33 2.26 2.34 2.31 2.22 2.33 2.49 2.53 2.56 2.57 2.73 2.85 3.11 3.17 3.11
0.54 0.54 0.55 0.60 0.71 0.86 0.54 0.72 0.94 0.83 0.79 0.76 0.72 0.68 0.54 0.44 0.48 0.51 0.54 0.53 0.52 0.57 0.67 0.82 0.95 1.09 1.22 1.32 1.42 1.56 1.75 2.02 2.17 2.31 2.29 2.26 2.27 2.16 2.05 2.13 2.25 2.35 2.42 2.39 2.44 2.62 2.81 3.07 3.20
0.54 0.82 1.09 1.06 1.05 0.90 0.44 0.63 0.85 0.68 0.59 0.59 0.60 0.61 0.57 0.53 0.58 0.66 0.73 0.70 0.66 0.69 0.83 0.96 1.06 1.12 1.16 1.13 1.16 1.25 1.40 1.63 1.77 1.89 2.06 2.11 2.14 2.12 2.10 2.02 2.07 2.16 2.21 2.30 2.48 2.49 2.57 2.77 2.98
0.53 0.70 1.13 1.21 1.04 0.84 0.66 0.87 0.90 0.62 0.52 0.52 0.55 0.53 0.54 0.61 0.69 0.84 0.96 0.98 0.91 0.90 0.94 0.96 1.04 1.00 0.99 1.02 1.05 1.12 1.17 1.32 1.42 1.49 1.62 1.74 1.73 1.72 1.70 1.75 1.85 2.01 2.09 2.19 2.36 2.44 2.45 2.50 2.56
0.48 0.45 0.48 0.71 0.70 0.82 0.80 0.90 0.84 0.57 0.48 0.50 0.54 0.55 0.58 0.71 0.83 1.00 1.19 1.23 1.14 1.07 1.02 1.04 1.11 1.06 0.98 1.00 1.08 1.10 1.11 1.10 1.09 1.15 1.14 1.21 1.28 1.30 1.33 1.40 1.54 1.75 1.88 1.93 2.07 2.26 2.26 2.31 2.32
0.33 0.37 0.48 0.80 1.07 1.12 0.93 0.97 1.02 0.73 0.56 0.56 0.64 0.76 0.85 0.99 1.04 1.19 1.32 1.33 1.28 1.31 1.27 1.12 1.11 1.16 1.08 1.17 1.19 1.11 1.05 1.00 0.99 1.04 1.06 1.05 1.13 1.22 1.29 1.30 1.36 1.50 1.59 1.68 1.84 1.99 2.09 2.15 2.12
0.30 0.37 0.54 0.81 0.90 1.22 1.39 1.34 0.93 0.74 0.70 0.69 0.77 1.05 1.14 1.20 1.26 1.30 1.38 1.37 1.26 1.24 1.22 1.21 1.16 1.15 1.17 1.19 1.21 1.08 1.06 1.08 1.06 1.02 1.04 1.10 1.16 1.25 1.28 1.33 1.35 1.36 1.44 1.49 1.59 1.73 1.87 1.90 1.92
0.41 0.54 0.72 1.15 1.13 1.06 1.45 1.51 0.94 0.77 0.80 0.81 0.83 0.89 0.97 1.17 1.26 1.25 1.34 1.30 1.18 1.16 1.06 1.11 1.18 1.18 1.26 1.28 1.20 1.12 1.16 1.18 1.20 1.16 1.11 1.12 1.15 1.14 1.20 1.30 1.25 1.23 1.27 1.35 1.46 1.56 1.61 1.70 1.67

GEFSSGP_prec_meanprecacc_294.txt.gz
Total_Precipitation_Accumulation
1.73 2.10 2.98 3.79 4.04 3.44 2.87 2.37 2.00 2.01 1.74 1.31 0.98 1.04 1.43 1.78 2.16 2.67 2.82 2.52 1.91 1.68 1.95 2.62 3.13 2.91 2.63 2.44 2.48 2.60 2.52 2.36 2.27 2.18 2.24 1.92 1.80 1.79 1.70 1.58 1.55 1.51 1.51 1.50 1.57 1.58 1.44 1.26 1.17
1.52 2.51 3.57 4.28 3.78 2.84 2.62 2.31 2.23 1.93 1.40 1.02 0.77 0.84 1.06 1.03 0.88 1.64 2.85 2.78 1.86 1.61 1.71 2.08 2.85 2.72 2.52 2.51 2.62 2.62 2.48 2.36 2.32 2.22 2.04 1.76 1.74 1.76 1.79 1.82 1.75 1.62 1.58 1.65 1.64 1.62 1.53 1.40 1.28
1.69 2.96 3.74 3.95 2.82 2.51 2.61 2.43 2.21 1.60 1.10 0.94 0.81 0.71 0.92 1.23 1.24 1.74 2.60 2.11 1.54 1.51 1.65 2.22 2.69 2.53 2.39 2.24 2.33 2.40 2.35 2.27 2.30 2.21 1.90 1.73 1.67 1.68 1.72 1.82 1.80 1.72 1.66 1.62 1.59 1.49 1.44 1.43 1.33
2.08 3.15 3.36 2.97 2.45 2.13 2.19 2.32 1.93 1.53 1.18 0.80 0.75 0.78 0.82 1.34 1.57 1.62 1.69 1.53 1.34 1.40 1.53 1.94 2.40 2.37 2.26 2.06 2.10 2.00 1.90 1.92 2.06 2.02 1.84 1.72 1.75 1.68 1.73 1.82 1.77 1.73 1.62 1.54 1.51 1.43 1.37 1.34 1.27
2.71 3.33 3.18 2.64 2.29 2.12 1.99 1.89 1.69 1.66 1.47 1.01 0.82 0.97 1.22 1.72 1.83 1.73 1.56 1.44 1.33 1.39 1.36 1.57 1.99 2.08 2.08 2.05 1.98 1.92 1.76 1.79 1.84 1.81 1.76 1.68 1.72 1.73 1.72 1.63 1.49 1.45 1.47 1.46 1.54 1.52 1.36 1.33 1.29
3.16 3.19 3.17 2.81 2.39 2.23 2.10 1.78 1.55 1.56 1.40 1.07 0.92 1.17 1.72 2.32 2.30 2.21 1.75 1.64 1.59 1.36 1.26 1.32 1.64 1.76 1.73 1.74 1.96 1.99 1.70 1.74 1.72 1.63 1.63 1.65 1.63 1.62 1.55 1.37 1.34 1.36 1.47 1.52 1.49 1.43 1.32 1.31 1.30
3.21 3.11 2.94 2.51 2.42 2.46 2.20 1.62 1.53 1.50 1.38 1.06 0.90 1.19 1.79 2.63 2.54 2.16 1.75 1.51 1.57 1.44 1.30 1.22 1.21 1.31 1.51 1.72 1.75 1.69 1.72 1.80 1.75 1.56 1.54 1.57 1.42 1.31 1.28 1.31 1.41 1.39 1.45 1.45 1.35 1.28 1.26 1.33 1.37
2.42 2.74 2.81 2.68 2.59 2.73 1.96 1.40 1.27 1.28 1.22 0.77 0.77 1.16 1.65 2.23 2.18 2.03 1.70 1.48 1.44 1.28 1.19 1.07 0.97 1.04 1.16 1.35 1.53 1.55 1.57 1.63 1.60 1.53 1.58 1.61 1.40 1.25 1.29 1.32 1.53 1.52 1.46 1.48 1.39 1.27 1.24 1.30 1.40
2.14 2.72 3.11 3.03 2.51 2.40 1.66 1.55 1.23 1.07 0.99 0.82 0.79 0.92 1.19 1.34 1.52 1.66 1.58 1.41 1.35 1.13 1.07 1.00 0.88 0.92 1.00 1.06 1.16 1.35 1.37 1.38 1.30 1.20 1.30 1.24 1.04 0.99 1.11 1.16 1.50 1.63 1.69 1.62 1.53 1.46 1.36 1.26 1.23
2.32 2.79 2.86 2.28 1.75 1.71 1.61 1.51 1.24 1.32 1.31 1.11 0.97 0.92 1.20 1.33 1.40 1.57 1.50 1.39 1.29 1.16 1.05 0.95 0.94 0.92 0.91 0.89 1.14 1.33 1.13 1.06 0.96 0.97 0.97 0.98 1.01 1.06 0.94 1.08 1.38 1.38 1.42 1.47 1.45 1.40 1.25 1.00 0.84
1.73 2.14 2.02 1.71 1.26 1.21 1.32 1.14 0.97 1.34 1.52 1.22 1.14 1.08 1.22 1.40 1.41 1.40 1.45 1.36 1.21 1.12 1.00 0.90 0.92 0.87 0.80 0.89 1.03 1.22 1.26 1.23 1.18 1.02 1.01 0.97 0.91 0.88 0.78 0.80 0.93 0.97 1.05 1.04 1.13 1.14 0.95 0.78 0.75
1.45 1.44 1.44 1.48 1.09 1.16 1.25 1.02 1.05 1.21 1.27 1.00 0.96 1.00 1.19 1.30 1.31 1.26 1.28 1.27 1.09 1.02 1.05 0.89 0.86 0.80 0.71 0.64 0.71 0.87 0.93 0.94 0.95 0.97 0.92 0.93 0.99 0.97 0.87 0.87 0.94 0.97 0.94 1.05 1.09 1.10 0.97 0.82 0.69
1.55 1.52 1.31 1.26 1.10 1.11 1.15 1.03 1.05 1.20 1.01 0.90 1.02 1.12 1.30 1.37 1.32 1.19 1.09 1.09 1.09 1.08 1.02 0.96 0.90 0.86 0.86 0.82 0.74 0.70 0.73 0.80 0.84 0.91 0.85 0.81 0.88 0.98 0.99 0.95 1.02 1.01 1.01 1.06 1.04 0.91 0.92 0.89 0.77
1.36 1.41 1.43 1.35 1.24 1.09 1.20 1.08 1.08 1.35 1.12 1.00 1.04 1.19 1.33 1.35 1.27 1.17 1.09 1.04 0.97 1.04 1.09 1.05 0.97 0.94 0.85 0.81 0.81 0.80 0.75 0.78 0.81 0.87 0.81 0.72 0.74 0.80 0.93 0.95 1.04 0.99 1.03 1.09 0.99 0.94 0.97 0.98 0.87
1.13 1.53 1.65 1.44 1.32 1.21 1.25 1.42 1.32 1.28 1.15 1.11 1.09 1.12 1.28 1.36 1.27 1.15 1.09 1.08 0.97 0.95 1.05 1.12 1.09 1.06 0.93 0.86 0.86 0.87 0.84 0.78 0.80 0.82 0.73 0.68 0.73 0.74 0.88 0.97 1.01 1.01 1.04 1.04 1.05 1.06 1.02 0.95 0.88
1.35 1.72 2.04 1.54 1.35 1.19 1.40 1.76 1.46 1.35 1.27 1.19 1.02 1.03 1.11 1.18 1.19 1.19 1.10 1.02 1.00 0.98 0.98 1.02 1.00 1.03 1.03 0.99 0.97 0.96 0.89 0.85 0.89 0.88 0.81 0.75 0.74 0.80 1.03 1.10 1.00 1.07 1.17 1.19 1.23 1.19 1.12 1.05 1.04
1.78 1.87 1.81 1.53 1.25 1.13 1.32 1.50 1.38 1.35 1.34 1.21 0.98 0.87 0.92 0.99 1.03 1.07 1.02 1.01 1.00 0.96 0.92 0.93 0.92 1.08 1.09 1.04 1.09 1.08 1.03 1.08 1.11 1.10 1.04 0.95 0.90 1.00 1.19 1.27 1.16 1.14 1.30 1.29 1.20 1.26 1.32 1.28 1.32
1.51 1.33 1.26 1.34 1.14 1.09 1.22 1.18 1.22 1.23 1.18 1.07 0.94 0.84 0.86 0.87 0.86 0.84 0.79 0.88 0.86 0.83 0.81 0.84 0.89 1.01 1.10 1.21 1.28 1.33 1.32 1.31 1.43 1.50 1.44 1.23 1.17 1.21 1.38 1.51 1.46 1.40 1.55 1.58 1.47 1.60 1.68 1.60 1.65
0.98 1.01 1.07 1.06 0.90 1.01 1.10 1.05 1.10 1.09 1.06 0.91 0.82 0.75 0.75 0.73 0.74 0.71 0.69 0.76 0.75 0.68 0.66 0.74 0.89 1.03 1.16 1.28 1.43 1.63 1.77 1.84 1.84 1.82 1.85 1.75 1.55 1.61 1.74 1.73 1.95 2.01 2.00 2.04 2.01 2.18 2.25 1.97 1.82
0.90 0.97 1.02 0.95 0.79 0.89 0.96 0.98 1.02 0.96 0.89 0.74 0.68 0.64 0.62 0.59 0.61 0.61 0.55 0.55 0.57 0.59 0.63 0.71 0.87 1.09 1.28 1.47 1.64 1.79 2.10 2.24 2.23 2.27 2.18 2.10 1.96 1.97 1.89 2.00 2.24 2.29 2.40 2.51 2.37 2.54 2.67 2.35 2.06
0.87 0.85 0.88 0.87 0.90 0.91 0.91 1.06 1.07 1.02 0.86 0.69 0.59 0.53 0.50 0.46 0.51 0.53 0.48 0.44 0.42 0.46 0.54 0.64 0.76 0.97 1.27 1.57 1.81 1.96 2.18 2.44 2.53 2.40 2.34 2.33 2.36 2.39 2.26 2.22 2.38 2.43 2.52 2.73 2.77 2.72 2.87 2.84 2.49
0.98 0.63 0.59 0.65 0.84 1.10 0.91 1.26 1.07 0.98 0.88 0.71 0.61 0.54 0.49 0.50 0.51 0.49 0.46 0.46 0.44 0.48 0.56 0.67 0.77 0.92 1.11 1.36 1.70 1.97 2.23 2.56 2.58 2.47 2.43 2.47 2.53 2.56 2.49 2.44 2.53 2.57 2.57 2.67 2.73 2.73 3.02 3.26 3.03
0.74 0.49 0.52 0.63 0.70 0.77 0.69 0.97 1.00 0.82 0.90 0.80 0.72 0.65 0.57 0.52 0.53 0.49 0.48 0.48 0.51 0.54 0.60 0.74 0.86 0.98 1.14 1.39 1.69 2.01 2.20 2.39 2.53 2.51 2.39 2.33 2.39 2.34 2.24 2.33 2.50 2.53 2.56 2.58 2.74 2.86 3.13 3.19 3.12
0.55 0.56 0.59 0.63 0.73 0.88 0.55 0.73 0.95 0.85 0.82 0.81 0.77 0.74 0.63 0.48 0.51 0.54 0.58 0.58 0.57 0.62 0.72 0.85 0.98 1.13 1.26 1.38 1.50 1.66 1.85 2.10 2.23 2.35 2.34 2.33 2.35 2.24 2.11 2.17 2.26 2.36 2.42 2.40 2.46 2.63 2.82 3.08 3.21
0.56 0.84 1.12 1.09 1.07 0.92 0.45 0.64 0.87 0.71 0.62 0.63 0.63 0.63 0.61 0.56 0.59 0.68 0.75 0.73 0.71 0.73 0.87 0.99 1.09 1.16 1.21 1.19 1.25 1.35 1.49 1.70 1.83 1.94 2.09 2.14 2.18 2.18 2.17 2.08 2.11 2.17 2.22 2.31 2.49 2.50 2.58 2.79 2.99
0.54 0.72 1.16 1.24 1.05 0.85 0.67 0.89 0.92 0.64 0.53 0.54 0.56 0.55 0.56 0.63 0.71 0.86 0.97 1.00 0.94 0.92 0.96 0.98 1.07 1.05 1.05 1.08 1.13 1.19 1.25 1.38 1.47 1.53 1.66 1.76 1.75 1.75 1.73 1.78 1.89 2.03 2.11 2.19 2.36 2.45 2.46 2.52 2.58
0.49 0.46 0.49 0.72 0.72 0.84 0.81 0.92 0.86 0.59 0.51 0.52 0.56 0.57 0.59 0.72 0.84 1.01 1.20 1.24 1.15 1.09 1.04 1.06 1.15 1.10 1.02 1.05 1.14 1.17 1.18 1.16 1.15 1.22 1.20 1.25 1.31 1.33 1.36 1.42 1.56 1.76 1.89 1.94 2.07 2.27 2.28 2.35 2.35
0.34 0.38 0.50 0.82 1.09 1.15 0.95 0.99 1.04 0.75 0.58 0.57 0.66 0.77 0.87 0.99 1.05 1.20 1.32 1.33 1.29 1.32 1.30 1.15 1.14 1.19 1.12 1.21 1.24 1.17 1.12 1.07 1.07 1.10 1.11 1.11 1.17 1.25 1.31 1.33 1.38 1.52 1.60 1.69 1.85 2.00 2.10 2.18 2.14
0.31 0.38 0.55 0.82 0.92 1.25 1.41 1.35 0.94 0.75 0.72 0.70 0.78 1.06 1.15 1.21 1.27 1.31 1.38 1.37 1.27 1.26 1.24 1.23 1.19 1.17 1.19 1.22 1.24 1.12 1.11 1.14 1.12 1.08 1.10 1.16 1.21 1.30 1.32 1.36 1.38 1.39 1.45 1.50 1.61 1.76 1.90 1.92 1.93
0.42 0.54 0.73 1.16 1.15 1.07 1.46 1.52 0.95 0.79 0.81 0.82 0.85 0.91 0.98 1.18 1.27 1.27 1.35 1.32 1.21 1.18 1.08 1.13 1.20 1.20 1.28 1.31 1.23 1.16 1.22 1.25 1.29 1.25 1.20 1.21 1.22 1.20 1.26 1.35 1.29 1.26 1.29 1.37 1.48 1.58 1.64 1.72 1.68